| time (UTC) | temp F | wind direction | speed knots | gust knots | rain 1hr in | rain 24hr in | rain mn in | humidity % | barometer mb |
| 20260507114503 | 42 | 0 | 0.0 | 0.0 | 0.00 | 0.00 | 0.00 | 89 | 1018.3 |
| 20260507113005 | 42 | 0 | 0.0 | 0.0 | 0.00 | 0.00 | 0.00 | 89 | 1018.2 |
| 20260507111504 | 43 | 0 | 0.0 | 0.0 | 0.00 | 0.00 | 0.00 | 89 | 1018.2 |
| 20260507110217 | 43 | 0 | 0.0 | 0.0 | 0.00 | 0.00 | 0.00 | 89 | 1018.0 |
| 20260507104504 | 43 | 0 | 0.0 | 0.0 | 0.00 | 0.00 | 0.00 | 89 | 1018.0 |
| 20260507103003 | 43 | 0 | 0.0 | 0.0 | 0.00 | 0.00 | 0.00 | 89 | 1017.9 |
| 20260507101717 | 44 | 0 | 0.0 | 0.0 | 0.00 | 0.00 | 0.00 | 88 | 1018.0 |
| 20260507100216 | 44 | 0 | 0.0 | 0.0 | 0.00 | 0.00 | 0.00 | 88 | 1018.1 |
| 20260507094504 | 44 | 0 | 0.0 | 0.0 | 0.00 | 0.00 | 0.00 | 87 | 1017.9 |
| 20260507093003 | 44 | 0 | 0.0 | 0.0 | 0.00 | 0.00 | 0.00 | 87 | 1017.7 |
| 20260507091503 | 45 | 0 | 0.0 | 0.0 | 0.00 | 0.00 | 0.00 | 87 | 1017.9 |
| 20260507090004 | 45 | 0 | 0.0 | 0.0 | 0.00 | 0.00 | 0.00 | 86 | 1017.8 |
| 20260507084719 | 45 | 0 | 0.0 | 0.0 | 0.00 | 0.00 | 0.00 | 86 | 1018.2 |
| 20260507083004 | 45 | 0 | 0.0 | 0.0 | 0.00 | 0.00 | 0.00 | 86 | 1018.2 |
| 20260507081717 | 45 | 0 | 0.0 | 0.0 | 0.00 | 0.00 | 0.00 | 84 | 1018.0 |
| 20260507080218 | 46 | 0 | 0.0 | 0.0 | 0.00 | 0.00 | 0.00 | 82 | 1018.0 |
| 20260507074503 | 46 | 0 | 0.0 | 0.0 | 0.00 | 0.00 | 0.00 | 81 | 1018.0 |
| 20260507073004 | 46 | 0 | 0.0 | 0.0 | 0.00 | 0.00 | 0.00 | 80 | 1018.0 |
| 20260507071503 | 47 | 0 | 0.0 | 0.0 | 0.00 | 0.00 | 0.00 | 79 | 1018.2 |
| 20260507070005 | 48 | 0 | 0.0 | 0.0 | 0.00 | 0.00 | 0.00 | 78 | 1018.2 |
| 20260507064718 | 48 | 0 | 0.0 | 0.0 | 0.00 | 0.00 | 0.00 | 77 | 1018.4 |
| 20260507063217 | 48 | 0 | 0.0 | 0.0 | 0.00 | 0.00 | 0.00 | 76 | 1018.5 |
| 20260507061718 | 49 | 0 | 0.0 | 0.0 | 0.00 | 0.00 | 0.00 | 75 | 1018.3 |
| 20260507060003 | 50 | 0 | 0.0 | 0.0 | 0.00 | 0.00 | 0.00 | 73 | 1018.0 |
| 20260507054718 | 50 | 0 | 0.0 | 0.0 | 0.00 | 0.00 | 0.00 | 72 | 1017.8 |
| 20260507053004 | 50 | 0 | 0.0 | 0.0 | 0.00 | 0.00 | 0.00 | 72 | 1018.0 |
| 20260507051504 | 51 | 0 | 0.0 | 0.0 | 0.00 | 0.00 | 0.00 | 71 | 1017.8 |
| 20260507050005 | 52 | 0 | 0.0 | 0.0 | 0.00 | 0.00 | 0.00 | 69 | 1017.8 |
| 20260507044503 | 52 | 0 | 0.0 | 0.0 | 0.00 | 0.00 | 0.00 | 67 | 1017.8 |
| 20260507043218 | 53 | 0 | 0.0 | 0.0 | 0.00 | 0.00 | 0.00 | 66 | 1017.7 |
| 20260507041503 | 53 | 0 | 0.0 | 0.0 | 0.00 | 0.00 | 0.00 | 65 | 1017.7 |
| 20260507040003 | 54 | 0 | 0.0 | 0.0 | 0.00 | 0.00 | 0.00 | 64 | 1017.8 |
| 20260507034503 | 55 | 0 | 0.0 | 0.0 | 0.00 | 0.00 | 0.00 | 62 | 1017.6 |
| 20260507033003 | 55 | 0 | 0.0 | 0.9 | 0.00 | 0.00 | 0.00 | 62 | 1017.6 |
| 20260507031503 | 55 | 59 | 0.0 | 3.5 | 0.00 | 0.00 | 0.00 | 62 | 1017.4 |
| 20260507030003 | 56 | 59 | 0.9 | 3.5 | 0.00 | 0.00 | 0.00 | 61 | 1017.3 |
| 20260507024503 | 56 | 60 | 0.9 | 5.2 | 0.00 | 0.00 | 0.00 | 60 | 1017.1 |
| 20260507023004 | 57 | 61 | 0.9 | 4.3 | 0.00 | 0.00 | 0.00 | 59 | 1017.0 |
| 20260507021503 | 57 | 67 | 0.9 | 3.5 | 0.00 | 0.00 | 0.00 | 59 | 1016.9 |
| 20260507020218 | 58 | 67 | 0.0 | 1.7 | 0.00 | 0.00 | 0.00 | 58 | 1016.7 |
| 20260507014716 | 58 | 67 | 0.0 | 0.9 | 0.00 | 0.00 | 0.00 | 57 | 1016.6 |
| 20260507013003 | 59 | 67 | 0.0 | 2.6 | 0.00 | 0.00 | 0.00 | 55 | 1016.3 |
| 20260507011503 | 59 | 67 | 0.0 | 2.6 | 0.00 | 0.00 | 0.00 | 54 | 1016.1 |
| 20260507010217 | 60 | 68 | 0.9 | 4.3 | 0.00 | 0.00 | 0.00 | 53 | 1016.0 |
| 20260507004503 | 60 | 75 | 0.9 | 7.0 | 0.00 | 0.00 | 0.00 | 52 | 1015.9 |
| 20260507003004 | 61 | 70 | 0.9 | 5.2 | 0.00 | 0.00 | 0.00 | 51 | 1015.7 |
| 20260507001503 | 62 | 33 | 1.7 | 8.7 | 0.00 | 0.00 | 0.00 | 49 | 1015.6 |
| 20260507000004 | 63 | 39 | 0.9 | 4.3 | 0.00 | 0.00 | 0.00 | 48 | 1015.5 |
| 20260506234503 | 63 | 42 | 1.7 | 9.6 | 0.00 | 0.00 | 0.00 | 48 | 1015.6 |
| 20260506233219 | 63 | 46 | 1.7 | 7.8 | 0.00 | 0.00 | 0.00 | 49 | 1015.4 |
| 20260506231503 | 64 | 18 | 0.9 | 8.7 | 0.00 | 0.00 | 0.00 | 48 | 1015.3 |
| 20260506230003 | 66 | 50 | 1.7 | 7.0 | 0.00 | 0.00 | 0.00 | 47 | 1015.1 |
| 20260506224503 | 64 | 71 | 1.7 | 8.7 | 0.00 | 0.00 | 0.00 | 50 | 1015.1 |
| 20260506223003 | 64 | 59 | 1.7 | 7.8 | 0.00 | 0.00 | 0.00 | 50 | 1014.9 |
| 20260506221504 | 64 | 57 | 2.6 | 9.6 | 0.00 | 0.00 | 0.00 | 51 | 1014.8 |
| 20260506220003 | 64 | 17 | 1.7 | 8.7 | 0.00 | 0.00 | 0.00 | 49 | 1014.7 |
| 20260506214504 | 64 | 6 | 3.5 | 8.7 | 0.00 | 0.00 | 0.00 | 50 | 1014.6 |
| 20260506213003 | 65 | 28 | 2.6 | 8.7 | 0.00 | 0.00 | 0.00 | 50 | 1014.7 |
| 20260506211503 | 64 | 25 | 3.5 | 11.3 | 0.00 | 0.00 | 0.00 | 51 | 1014.8 |
| 20260506210003 | 64 | 53 | 2.6 | 8.7 | 0.00 | 0.00 | 0.00 | 51 | 1014.7 |
| 20260506204503 | 64 | 31 | 2.6 | 7.8 | 0.00 | 0.00 | 0.00 | 53 | 1015.0 |
| 20260506203003 | 64 | 21 | 2.6 | 8.7 | 0.00 | 0.00 | 0.00 | 56 | 1015.4 |
| 20260506201503 | 62 | 11 | 2.6 | 9.6 | 0.00 | 0.00 | 0.00 | 55 | 1015.5 |
| 20260506200217 | 64 | 47 | 2.6 | 8.7 | 0.00 | 0.00 | 0.00 | 53 | 1015.7 |
| 20260506194503 | 65 | 25 | 1.7 | 7.8 | 0.00 | 0.00 | 0.00 | 52 | 1015.5 |
| 20260506193003 | 64 | 20 | 2.6 | 9.6 | 0.00 | 0.00 | 0.00 | 54 | 1015.6 |
| 20260506191503 | 64 | 28 | 2.6 | 9.6 | 0.00 | 0.00 | 0.00 | 54 | 1015.8 |
| 20260506190003 | 63 | 37 | 1.7 | 7.8 | 0.00 | 0.00 | 0.00 | 55 | 1016.1 |
| 20260506184504 | 63 | 30 | 1.7 | 8.7 | 0.00 | 0.00 | 0.00 | 54 | 1016.3 |
| 20260506183004 | 63 | 26 | 1.7 | 7.8 | 0.00 | 0.00 | 0.00 | 54 | 1016.5 |
| 20260506181503 | 63 | 79 | 1.7 | 8.7 | 0.00 | 0.00 | 0.00 | 53 | 1016.5 |
| 20260506180004 | 63 | 57 | 3.5 | 8.7 | 0.00 | 0.00 | 0.00 | 56 | 1016.6 |
| 20260506174503 | 61 | 40 | 2.6 | 9.6 | 0.00 | 0.00 | 0.00 | 57 | 1016.7 |
| 20260506173003 | 63 | 43 | 2.6 | 10.4 | 0.00 | 0.00 | 0.00 | 57 | 1017.0 |
| 20260506171504 | 63 | 52 | 1.7 | 7.8 | 0.00 | 0.00 | 0.00 | 58 | 1017.5 |
| 20260506170004 | 62 | 73 | 1.7 | 7.0 | 0.00 | 0.00 | 0.00 | 59 | 1017.9 |
| 20260506164503 | 60 | 72 | 2.6 | 7.8 | 0.00 | 0.00 | 0.00 | 62 | 1018.0 |
| 20260506163003 | 58 | 14 | 2.6 | 9.6 | 0.00 | 0.00 | 0.00 | 60 | 1017.7 |
| 20260506161503 | 57 | 10 | 3.5 | 10.4 | 0.00 | 0.00 | 0.00 | 62 | 1017.6 |
| 20260506160003 | 59 | 33 | 2.6 | 9.6 | 0.00 | 0.00 | 0.00 | 60 | 1017.4 |
| 20260506154503 | 59 | 28 | 1.7 | 8.7 | 0.00 | 0.00 | 0.00 | 62 | 1017.0 |
| 20260506153218 | 58 | 42 | 2.6 | 9.6 | 0.00 | 0.00 | 0.00 | 63 | 1016.7 |
| 20260506151503 | 56 | 87 | 2.6 | 7.8 | 0.00 | 0.00 | 0.00 | 64 | 1016.1 |
| 20260506150004 | 55 | 78 | 3.5 | 12.2 | 0.00 | 0.00 | 0.00 | 64 | 1016.1 |
| 20260506144503 | 54 | 68 | 2.6 | 10.4 | 0.00 | 0.00 | 0.00 | 66 | 1016.1 |
| 20260506143004 | 53 | 56 | 2.6 | 10.4 | 0.00 | 0.00 | 0.00 | 69 | 1016.2 |
| 20260506141503 | 52 | 56 | 2.6 | 10.4 | 0.00 | 0.00 | 0.00 | 71 | 1016.1 |
| 20260506140003 | 51 | 19 | 2.6 | 11.3 | 0.00 | 0.00 | 0.00 | 74 | 1016.3 |
| 20260506134503 | 51 | 28 | 4.3 | 11.3 | 0.00 | 0.00 | 0.00 | 74 | 1016.3 |
| 20260506133003 | 50 | 39 | 2.6 | 12.2 | 0.00 | 0.00 | 0.00 | 78 | 1016.4 |
| 20260506131503 | 50 | 39 | 2.6 | 9.6 | 0.00 | 0.00 | 0.00 | 78 | 1016.2 |
| 20260506130219 | 50 | 33 | 1.7 | 11.3 | 0.00 | 0.00 | 0.00 | 79 | 1016.1 |
| 20260506124503 | 49 | 30 | 1.7 | 9.6 | 0.00 | 0.00 | 0.00 | 81 | 1016.1 |
| 20260506123004 | 49 | 17 | 4.3 | 12.2 | 0.00 | 0.00 | 0.00 | 82 | 1016.1 |
| 20260506121503 | 49 | 26 | 4.3 | 11.3 | 0.00 | 0.00 | 0.00 | 81 | 1015.7 |
| 20260506120004 | 48 | 2 | 2.6 | 10.4 | 0.00 | 0.00 | 0.00 | 84 | 1015.3 |